Meteo pe oră la Aahalden

Astăzi, 15 Iunie, Marţi

Timp Temperatura Precipitaţii Vânt Presiune Umiditate
00:00 +16°C° 0 mm 1 m/s 712 mmHg 86%
01:00 +15°C° 0 mm 1 m/s 712 mmHg 88%
02:00 +15°C° 0 mm 1 m/s 712 mmHg 88%
03:00 +15°C° 0 mm 1 m/s 712 mmHg 88%
04:00 +15°C° 0 mm 1 m/s 711 mmHg 88%
05:00 +16°C° 0 mm 1 m/s 712 mmHg 83%
06:00 +17°C° 0 mm 0 m/s 712 mmHg 77%
07:00 +18°C° 0 mm 0 m/s 712 mmHg 72%
08:00 +20°C° 0 mm 0 m/s 712 mmHg 66%
09:00 +24°C° 0 mm 1 m/s 712 mmHg 59%
10:00 +26°C° 0 mm 1 m/s 713 mmHg 52%
11:00 +27°C° 0 mm 1 m/s 713 mmHg 48%
12:00 +28°C° 0 mm 1 m/s 713 mmHg 44%
13:00 +29°C° 0 mm 2 m/s 713 mmHg 39%
14:00 +29°C° 0 mm 2 m/s 712 mmHg 40%
15:00 +29°C° 0 mm 2 m/s 712 mmHg 40%
16:00 +29°C° 0 mm 2 m/s 712 mmHg 40%
17:00 +27°C° 0 mm 1 m/s 712 mmHg 50%
18:00 +26°C° 0 mm 1 m/s 712 mmHg 60%
19:00 +24°C° 0 mm 1 m/s 712 mmHg 70%
20:00 +23°C° 0 mm 1 m/s 711 mmHg 74%
21:00 +21°C° 0 mm 1 m/s 711 mmHg 77%
22:00 +19°C° 0 mm 1 m/s 711 mmHg 80%
23:00 +18°C° 0 mm 1 m/s 711 mmHg 80%

Mâine, 16 Iunie, Miercuri

Timp Temperatura Precipitaţii Vânt Presiune Umiditate
00:00 +18°C° 0 mm 1 m/s 711 mmHg 81%
01:00 +18°C° 0 mm 1 m/s 711 mmHg 81%
02:00 +16°C° 0 mm 1 m/s 711 mmHg 81%
03:00 +16°C° 0 mm 1 m/s 710 mmHg 81%
04:00 +16°C° 0 mm 1 m/s 710 mmHg 81%
05:00 +16°C° 0 mm 0 m/s 710 mmHg 77%
06:00 +18°C° 0 mm 0 m/s 711 mmHg 73%
07:00 +19°C° 0 mm 0 m/s 711 mmHg 69%
08:00 +21°C° 0 mm 0 m/s 711 mmHg 63%
09:00 +25°C° 0 mm 1 m/s 711 mmHg 57%
10:00 +27°C° 0 mm 1 m/s 711 mmHg 50%
11:00 +28°C° 0 mm 1 m/s 710 mmHg 47%
12:00 +29°C° 0 mm 1 m/s 710 mmHg 44%
13:00 +29°C° 0 mm 1 m/s 710 mmHg 40%
14:00 +29°C° 0 mm 1 m/s 710 mmHg 41%
15:00 +29°C° 0 mm 1 m/s 710 mmHg 41%
16:00 +29°C° 0 mm 1 m/s 710 mmHg 42%
17:00 +28°C° 0 mm 1 m/s 709 mmHg 51%
18:00 +27°C° 0 mm 1 m/s 709 mmHg 61%
19:00 +25°C° 0 mm 1 m/s 709 mmHg 70%
20:00 +24°C° 0 mm 1 m/s 709 mmHg 73%
21:00 +22°C° 0 mm 1 m/s 709 mmHg 76%
22:00 +20°C° 0 mm 1 m/s 709 mmHg 79%
23:00 +20°C° 0 mm 1 m/s 709 mmHg 79%

Poimâine, 17 Iunie, Joi

Timp Temperatura Precipitaţii Vânt Presiune Umiditate
00:00 +19°C° 0 mm 1 m/s 709 mmHg 80%
01:00 +19°C° 0 mm 1 m/s 709 mmHg 80%
02:00 +19°C° 0 mm 1 m/s 709 mmHg 80%
03:00 +19°C° 0 mm 1 m/s 709 mmHg 80%
04:00 +18°C° 0 mm 1 m/s 709 mmHg 80%
05:00 +19°C° 0 mm 1 m/s 709 mmHg 78%
06:00 +21°C° 0 mm 1 m/s 709 mmHg 76%
07:00 +20°C° 0 mm 0 m/s 710 mmHg 74%
08:00 +22°C° 0 mm 0 m/s 710 mmHg 67%
09:00 +24°C° 0 mm 0 m/s 710 mmHg 60%
10:00 +27°C° 0 mm 1 m/s 710 mmHg 54%
11:00 +29°C° 0 mm 1 m/s 710 mmHg 50%
12:00 +30°C° 0 mm 1 m/s 710 mmHg 46%
13:00 +31°C° 0 mm 1 m/s 709 mmHg 42%
14:00 +31°C° 0.1 mm 1 m/s 709 mmHg 43%
15:00 +31°C° 0.1 mm 1 m/s 709 mmHg 44%
16:00 +31°C° 0.1 mm 2 m/s 709 mmHg 44%
17:00 +29°C° 0.1 mm 2 m/s 709 mmHg 53%
18:00 +28°C° 0.1 mm 2 m/s 708 mmHg 61%
19:00 +26°C° 0.1 mm 2 m/s 708 mmHg 70%
20:00 +24°C° 0 mm 2 m/s 708 mmHg 74%
21:00 +23°C° 0 mm 2 m/s 708 mmHg 78%
22:00 +20°C° 0 mm 2 m/s 708 mmHg 82%
23:00 +19°C° 0.2 mm 2 m/s 708 mmHg 85%

18 Iunie, Vineri

Timp Temperatura Precipitaţii Vânt Presiune Umiditate
00:00 +19°C° 0.2 mm 2 m/s 709 mmHg 87%
01:00 +18°C° 0.2 mm 3 m/s 709 mmHg 90%
02:00 +18°C° 0.5 mm 2 m/s 709 mmHg 92%
03:00 +18°C° 0.5 mm 2 m/s 710 mmHg 93%
04:00 +18°C° 0.5 mm 1 m/s 710 mmHg 95%
05:00 +19°C° 0.4 mm 1 m/s 710 mmHg 94%
06:00 +19°C° 0.4 mm 1 m/s 710 mmHg 94%
07:00 +20°C° 0.4 mm 1 m/s 710 mmHg 93%
08:00 +21°C° 0.2 mm 1 m/s 710 mmHg 88%
09:00 +22°C° 0.2 mm 1 m/s 710 mmHg 83%
10:00 +23°C° 0.2 mm 2 m/s 710 mmHg 78%
11:00 +25°C° 0 mm 2 m/s 710 mmHg 67%
12:00 +27°C° 0 mm 2 m/s 710 mmHg 55%
13:00 +29°C° 0 mm 2 m/s 710 mmHg 44%
14:00 +29°C° 0 mm 2 m/s 710 mmHg 45%
15:00 +29°C° 0 mm 2 m/s 710 mmHg 46%
16:00 +29°C° 0 mm 2 m/s 710 mmHg 48%
17:00 +28°C° 0.1 mm 1 m/s 710 mmHg 57%
18:00 +26°C° 0.1 mm 1 m/s 710 mmHg 66%
19:00 +23°C° 0.1 mm 0 m/s 710 mmHg 75%
20:00 +23°C° 0 mm 1 m/s 710 mmHg 78%
21:00 +22°C° 0 mm 1 m/s 710 mmHg 81%
22:00 +21°C° 0 mm 1 m/s 710 mmHg 84%
23:00 +20°C° 0.3 mm 1 m/s 711 mmHg 86%

19 Iunie, Sâmbătă

Timp Temperatura Precipitaţii Vânt Presiune Umiditate
00:00 +18°C° 0.3 mm 2 m/s 711 mmHg 88%
01:00 +18°C° 0.3 mm 2 m/s 711 mmHg 90%
02:00 +19°C° 0.1 mm 1 m/s 711 mmHg 90%
03:00 +18°C° 0.1 mm 1 m/s 711 mmHg 90%
04:00 +18°C° 0.1 mm 1 m/s 711 mmHg 90%
05:00 +19°C° 0 mm 1 m/s 711 mmHg 87%
06:00 +20°C° 0 mm 1 m/s 711 mmHg 84%
07:00 +20°C° 0 mm 0 m/s 711 mmHg 81%
08:00 +24°C° 0 mm 1 m/s 711 mmHg 73%
09:00 +26°C° 0 mm 1 m/s 711 mmHg 65%
10:00 +28°C° 0 mm 1 m/s 711 mmHg 57%
11:00 +29°C° 0 mm 1 m/s 710 mmHg 52%
12:00 +30°C° 0 mm 2 m/s 710 mmHg 47%
13:00 +31°C° 0 mm 2 m/s 710 mmHg 42%
14:00 +32°C° 0 mm 2 m/s 709 mmHg 42%
15:00 +32°C° 0 mm 2 m/s 709 mmHg 42%
16:00 +32°C° 0 mm 2 m/s 709 mmHg 42%
17:00 +31°C° 0 mm 2 m/s 709 mmHg 52%
18:00 +29°C° 0 mm 1 m/s 708 mmHg 62%
19:00 +28°C° 0 mm 1 m/s 708 mmHg 73%
20:00 +26°C° 0 mm 1 m/s 708 mmHg 76%
21:00 +24°C° 0 mm 1 m/s 708 mmHg 79%
22:00 +21°C° 0 mm 2 m/s 708 mmHg 82%
23:00 +21°C° 0 mm 2 m/s 708 mmHg 82%

20 Iunie, Duminică

Timp Temperatura Precipitaţii Vânt Presiune Umiditate
00:00 +20°C° 0 mm 2 m/s 708 mmHg 82%
01:00 +20°C° 0 mm 2 m/s 708 mmHg 81%
02:00 +19°C° 0 mm 2 m/s 708 mmHg 82%
03:00 +20°C° 0 mm 1 m/s 709 mmHg 83%
04:00 +20°C° 0 mm 1 m/s 709 mmHg 84%
05:00 +21°C° 0.1 mm 1 m/s 709 mmHg 83%
06:00 +21°C° 0.1 mm 1 m/s 709 mmHg 82%
07:00 +22°C° 0.1 mm 1 m/s 710 mmHg 80%
08:00 +24°C° 0 mm 1 m/s 710 mmHg 75%
09:00 +25°C° 0 mm 1 m/s 710 mmHg 70%
10:00 +27°C° 0 mm 1 m/s 710 mmHg 65%
11:00 +27°C° 0.6 mm 1 m/s 709 mmHg 70%
12:00 +27°C° 0.6 mm 2 m/s 709 mmHg 74%
13:00 +27°C° 0.6 mm 2 m/s 709 mmHg 78%
14:00 +26°C° 1.6 mm 2 m/s 709 mmHg 81%
15:00 +26°C° 1.6 mm 2 m/s 709 mmHg 83%
16:00 +25°C° 1.6 mm 2 m/s 709 mmHg 86%
17:00 +24°C° 2.4 mm 2 m/s 708 mmHg 89%
18:00 +23°C° 2.4 mm 2 m/s 708 mmHg 92%
19:00 +21°C° 2.4 mm 2 m/s 707 mmHg 95%
20:00 +21°C° 6.2 mm 1 m/s 708 mmHg 96%
21:00 +20°C° 6.2 mm 1 m/s 709 mmHg 97%
22:00 +18°C° 6.2 mm 0 m/s 709 mmHg 98%
23:00 +19°C° 0.7 mm 1 m/s 709 mmHg 98%
Arată mai mult

Formular de consimțământ

Meteoprog și furnizorii noștri de servicii pot stoca și accesa date personale, precum cookies, identificatori de dispozitiv sau alte tehnologii similare pe dispozitivul dumneavoastră și procesa astfel de date pentru a personaliza conținutul și reclamele, dar și pentru a oferi caracteristici de social media și pentru a analiza traficul.

  • Stocarea și/sau accesarea informațiilor pe dispozitivul dumneavoastră

    Cookies, identificatori de dispozitiv sau alte informații pot fi stocate sau accesate pe dispozitiv în scopurile indicate mai sus.

  • Reclame și conținut personalizat, evaluarea reclamelor și a conținutului, informații despre audiențe și dezvoltarea produselor

    Reclamele și conținutul pot fi personalizate pe baza unui profil. Pot fi adăugate date suplimentare pentru a personaliza mai bine reclamele și conținutul. Performanța reclamelor și conținutului poate fi măsurată. Pot fi obținute informații despre utilizatorii care au văzut reclamele și conținutul. Aceste date pot fi utilizate pentru a dezvolta sau îmbunătăți experiența utilizatorilor, sistemele și software-ul.

Dând clic pe ‘Sunt de acord’, permiteți utilizarea cookie-urilor menționate, a identificatorilor de dispozitiv, balizelor web sau altor tehnologii similare. Setările pot fi modificate din browser-ul dispozitivului dumneavoastră.

În anumite scopuri, interesele legitime pot prima asupra consimțământului. Puteți citi mai multe informații în acest sens în Politica privind Confidențialitatea Datelor și Cookie.